| time (UTC) | temp C | wind direction | speed KPH | gust KPH | rain 1hr cm | rain 24hr cm | rain mn cm | humidity % | barometer mb |
| 20260504173050 | 11 | 274 | 25.7 | 38.6 | 0.00 | 0.00 | 0.00 | 33 | 996.3 |
| 20260504171547 | 11 | 302 | 16.1 | 41.8 | 0.00 | 0.00 | 0.00 | 36 | 996.4 |
| 20260504081545 | 2 | 284 | 14.5 | 17.7 | 0.00 | 0.00 | 0.00 | 45 | 998.1 |
| 20260504050116 | 5 | 298 | 14.5 | 20.9 | 0.00 | 0.00 | 0.00 | 41 | 999.6 |
| 20260504044515 | 5 | 275 | 17.7 | 22.5 | 0.00 | 0.00 | 0.00 | 40 | 999.9 |
| 20260504043016 | 5 | 292 | 17.7 | 24.1 | 0.00 | 0.00 | 0.00 | 39 | 999.9 |
| 20260504041514 | 5 | 299 | 14.5 | 20.9 | 0.00 | 0.00 | 0.00 | 39 | 1000.1 |
| 20260504040033 | 6 | 287 | 14.5 | 20.9 | 0.00 | 0.00 | 0.00 | 39 | 1000.1 |
| 20260504034512 | 6 | 305 | 14.5 | 20.9 | 0.00 | 0.00 | 0.00 | 39 | 1000.1 |
| 20260504033012 | 6 | 295 | 16.1 | 22.5 | 0.00 | 0.00 | 0.00 | 37 | 1000.2 |
| 20260504031513 | 6 | 299 | 16.1 | 22.5 | 0.00 | 0.00 | 0.00 | 38 | 1000.0 |
| 20260504030010 | 6 | 296 | 17.7 | 25.7 | 0.00 | 0.00 | 0.00 | 38 | 999.9 |
| 20260504024509 | 6 | 297 | 14.5 | 19.3 | 0.00 | 0.00 | 0.00 | 39 | 999.9 |
| 20260504023010 | 6 | 304 | 16.1 | 19.3 | 0.00 | 0.00 | 0.00 | 39 | 999.7 |
| 20260504021509 | 7 | 284 | 11.3 | 14.5 | 0.00 | 0.00 | 0.00 | 37 | 999.7 |
| 20260504020008 | 9 | 276 | 6.4 | 12.9 | 0.00 | 0.00 | 0.00 | 32 | 999.7 |
| 20260504014520 | 10 | 271 | 8.0 | 12.9 | 0.00 | 0.00 | 0.00 | 30 | 999.7 |
| 20260504013006 | 11 | 276 | 3.2 | 11.3 | 0.00 | 0.00 | 0.00 | 30 | 999.8 |
| 20260504011506 | 11 | 300 | 11.3 | 16.1 | 0.00 | 0.00 | 0.00 | 29 | 999.8 |
| 20260504010004 | 11 | 349 | 9.7 | 19.3 | 0.00 | 0.00 | 0.00 | 28 | 999.9 |
| 20260504004504 | 11 | 321 | 19.3 | 30.6 | 0.00 | 0.00 | 0.00 | 27 | 1000.1 |
| 20260504003008 | 12 | 325 | 12.9 | 35.4 | 0.00 | 0.00 | 0.00 | 27 | 1000.1 |
| 20260504001502 | 12 | 286 | 24.1 | 40.2 | 0.00 | 0.00 | 0.00 | 26 | 1000.2 |
| 20260504000001 | 12 | 300 | 20.9 | 30.6 | 0.00 | 0.00 | 0.00 | 25 | 1000.3 |
| 20260503234700 | 12 | 290 | 24.1 | 43.5 | 0.00 | 0.00 | 0.00 | 25 | 1000.1 |
| 20260503233059 | 13 | 331 | 19.3 | 32.2 | 0.00 | 0.00 | 0.00 | 24 | 1000.1 |
| 20260503231558 | 12 | 273 | 17.7 | 33.8 | 0.00 | 0.00 | 0.00 | 22 | 1000.3 |
| 20260503230104 | 12 | 330 | 22.5 | 40.2 | 0.00 | 0.00 | 0.00 | 23 | 1000.4 |
| 20260503224558 | 13 | 255 | 22.5 | 30.6 | 0.00 | 0.00 | 0.00 | 20 | 1000.5 |
| 20260503223057 | 13 | 304 | 12.9 | 49.9 | 0.00 | 0.00 | 0.00 | 24 | 1000.5 |
| 20260503221558 | 12 | 307 | 22.5 | 33.8 | 0.00 | 0.00 | 0.00 | 23 | 1000.7 |
| 20260503220054 | 13 | 306 | 20.9 | 37.0 | 0.00 | 0.00 | 0.00 | 22 | 1000.8 |
| 20260503214552 | 13 | 272 | 25.7 | 45.1 | 0.00 | 0.00 | 0.00 | 22 | 1001.3 |
| 20260503213051 | 12 | 249 | 24.1 | 48.3 | 0.00 | 0.00 | 0.00 | 19 | 1001.4 |
| 20260503211550 | 13 | 257 | 19.3 | 33.8 | 0.00 | 0.00 | 0.00 | 21 | 1001.6 |
| 20260503210047 | 12 | 254 | 30.6 | 48.3 | 0.00 | 0.00 | 0.00 | 18 | 1001.9 |
| 20260503204546 | 12 | 286 | 20.9 | 43.5 | 0.00 | 0.00 | 0.00 | 21 | 1002.1 |
| 20260503203047 | 12 | 294 | 25.7 | 46.7 | 0.00 | 0.00 | 0.00 | 18 | 1002.3 |
| 20260503201544 | 12 | 310 | 25.7 | 46.7 | 0.00 | 0.00 | 0.00 | 25 | 1002.4 |
| 20260503200045 | 12 | 296 | 29.0 | 37.0 | 0.00 | 0.00 | 0.00 | 24 | 1002.4 |
| 20260503194543 | 12 | 302 | 22.5 | 40.2 | 0.00 | 0.00 | 0.00 | 24 | 1002.5 |
| 20260503193047 | 11 | 259 | 25.7 | 64.4 | 0.00 | 0.00 | 0.00 | 23 | 1002.1 |
| 20260503191542 | 12 | 318 | 29.0 | 46.7 | 0.00 | 0.00 | 0.00 | 24 | 1002.4 |
| 20260503190042 | 12 | 272 | 29.0 | 45.1 | 0.00 | 0.00 | 0.00 | 20 | 1002.4 |
| 20260503184538 | 12 | 284 | 20.9 | 43.5 | 0.00 | 0.00 | 0.00 | 23 | 1002.7 |
| 20260503183052 | 12 | 317 | 25.7 | 40.2 | 0.00 | 0.00 | 0.00 | 27 | 1002.9 |
| 20260503181538 | 12 | 280 | 20.9 | 51.5 | 0.00 | 0.00 | 0.00 | 28 | 1003.1 |
| 20260503180035 | 12 | 244 | 27.4 | 40.2 | 0.00 | 0.00 | 0.00 | 26 | 1003.1 |
| 20260503174533 | 12 | 327 | 22.5 | 46.7 | 0.00 | 0.00 | 0.00 | 27 | 1003.2 |